• In Belarus
  • List of Countries
  • For 7 days
  • Water Temperature
  • Weather Map
  • Weather Widgets
  • user-avatar
    Login

    Hourly Weather Smolan

    Today, 18 November, Monday

    Time Temperature Precipitation Wind Pressure Humidity
    00:00 +7°C° 0 mm 1 mps 656 mmHg 93%
    01:00 +7°C° 0 mm 1 mps 655 mmHg 93%
    02:00 +7°C° 0 mm 1 mps 655 mmHg 94%
    03:00 +7°C° 0 mm 1 mps 655 mmHg 94%
    04:00 +8°C° 0 mm 1 mps 655 mmHg 94%
    05:00 +8°C° 0 mm 1 mps 654 mmHg 94%
    06:00 +8°C° 0.1 mm 1 mps 655 mmHg 94%
    07:00 +8°C° 0.1 mm 1 mps 655 mmHg 94%
    08:00 +9°C° 0.1 mm 1 mps 655 mmHg 94%
    09:00 +9°C° 0.3 mm 1 mps 656 mmHg 93%
    10:00 +9°C° 0.3 mm 2 mps 656 mmHg 91%
    11:00 +9°C° 0.3 mm 2 mps 656 mmHg 89%
    12:00 +10°C° 0.2 mm 2 mps 656 mmHg 86%
    13:00 +10°C° 0.2 mm 2 mps 657 mmHg 82%
    14:00 +11°C° 0.2 mm 3 mps 657 mmHg 78%
    15:00 +10°C° 0 mm 2 mps 657 mmHg 83%
    16:00 +9°C° 0 mm 2 mps 656 mmHg 88%
    17:00 +9°C° 0 mm 1 mps 656 mmHg 93%
    18:00 +8°C° 0 mm 1 mps 656 mmHg 94%
    19:00 +8°C° 0 mm 1 mps 656 mmHg 94%
    20:00 +8°C° 0 mm 1 mps 657 mmHg 95%
    21:00 +7°C° 0 mm 1 mps 657 mmHg 94%
    22:00 +7°C° 0 mm 1 mps 657 mmHg 93%
    23:00 +7°C° 0 mm 1 mps 657 mmHg 92%

    Tomorrow, 19 November, Tuesday

    Time Temperature Precipitation Wind Pressure Humidity
    00:00 +7°C° 0 mm 1 mps 657 mmHg 91%
    01:00 +7°C° 0 mm 1 mps 657 mmHg 90%
    02:00 +7°C° 0 mm 1 mps 657 mmHg 89%
    03:00 +6°C° 0 mm 1 mps 657 mmHg 89%
    04:00 +6°C° 0 mm 1 mps 657 mmHg 89%
    05:00 +6°C° 0 mm 1 mps 658 mmHg 89%
    06:00 +7°C° 0 mm 1 mps 658 mmHg 90%
    07:00 +7°C° 0 mm 1 mps 658 mmHg 90%
    08:00 +7°C° 0 mm 1 mps 658 mmHg 91%
    09:00 +9°C° 0 mm 1 mps 659 mmHg 86%
    10:00 +10°C° 0 mm 1 mps 659 mmHg 82%
    11:00 +12°C° 0 mm 1 mps 660 mmHg 78%
    12:00 +12°C° 0.1 mm 2 mps 660 mmHg 77%
    13:00 +12°C° 0.1 mm 2 mps 659 mmHg 76%
    14:00 +13°C° 0.1 mm 2 mps 659 mmHg 74%
    15:00 +12°C° 0 mm 2 mps 659 mmHg 81%
    16:00 +10°C° 0 mm 1 mps 658 mmHg 87%
    17:00 +9°C° 0 mm 1 mps 658 mmHg 94%
    18:00 +9°C° 0 mm 1 mps 658 mmHg 94%
    19:00 +8°C° 0 mm 1 mps 657 mmHg 95%
    20:00 +8°C° 0 mm 1 mps 657 mmHg 95%
    21:00 +8°C° 0 mm 1 mps 657 mmHg 95%
    22:00 +8°C° 0 mm 1 mps 657 mmHg 94%
    23:00 +8°C° 0 mm 1 mps 657 mmHg 94%

    Day after tomorrow, 20 November, Wednesday

    Time Temperature Precipitation Wind Pressure Humidity
    00:00 +8°C° 0 mm 1 mps 657 mmHg 92%
    01:00 +8°C° 0 mm 1 mps 656 mmHg 90%
    02:00 +8°C° 0 mm 1 mps 656 mmHg 88%
    03:00 +7°C° 0 mm 1 mps 656 mmHg 84%
    04:00 +7°C° 0 mm 1 mps 655 mmHg 80%
    05:00 +7°C° 0 mm 1 mps 655 mmHg 77%
    06:00 +7°C° 0 mm 1 mps 655 mmHg 76%
    07:00 +7°C° 0 mm 1 mps 655 mmHg 76%
    08:00 +7°C° 0 mm 1 mps 655 mmHg 76%
    09:00 +8°C° 0 mm 2 mps 655 mmHg 72%
    10:00 +9°C° 0 mm 2 mps 655 mmHg 67%
    11:00 +10°C° 0 mm 3 mps 656 mmHg 63%
    12:00 +9°C° 2.1 mm 2 mps 655 mmHg 73%
    13:00 +8°C° 2.1 mm 2 mps 654 mmHg 83%
    14:00 +8°C° 2.1 mm 1 mps 654 mmHg 93%
    15:00 +7°C° 1.1 mm 1 mps 654 mmHg 93%
    16:00 +7°C° 1.1 mm 1 mps 653 mmHg 94%
    17:00 +7°C° 1.1 mm 1 mps 653 mmHg 95%
    18:00 +6°C° 0 mm 1 mps 653 mmHg 94%
    19:00 +6°C° 0 mm 1 mps 653 mmHg 93%
    20:00 +6°C° 0 mm 1 mps 653 mmHg 92%
    21:00 +5°C° 0 mm 1 mps 653 mmHg 92%
    22:00 +5°C° 0 mm 1 mps 653 mmHg 91%
    23:00 +5°C° 0 mm 1 mps 653 mmHg 90%

    21 November, Thursday

    Time Temperature Precipitation Wind Pressure Humidity
    00:00 +5°C° 0 mm 1 mps 653 mmHg 90%
    01:00 +5°C° 0 mm 1 mps 653 mmHg 89%
    02:00 +4°C° 0 mm 1 mps 653 mmHg 88%
    03:00 +4°C° 0 mm 1 mps 653 mmHg 87%
    04:00 +4°C° 0 mm 1 mps 653 mmHg 86%
    05:00 +4°C° 0 mm 1 mps 653 mmHg 85%
    06:00 +4°C° 0 mm 1 mps 653 mmHg 85%
    07:00 +4°C° 0 mm 1 mps 653 mmHg 84%
    08:00 +4°C° 0 mm 1 mps 653 mmHg 84%
    09:00 +6°C° 0 mm 1 mps 654 mmHg 78%
    10:00 +8°C° 0 mm 1 mps 655 mmHg 73%
    11:00 +10°C° 0 mm 1 mps 655 mmHg 67%
    12:00 +10°C° 0 mm 1 mps 655 mmHg 66%
    13:00 +11°C° 0 mm 1 mps 655 mmHg 65%
    14:00 +11°C° 0 mm 1 mps 655 mmHg 64%
    15:00 +10°C° 0 mm 1 mps 654 mmHg 72%
    16:00 +8°C° 0 mm 1 mps 654 mmHg 79%
    17:00 +7°C° 0 mm 1 mps 654 mmHg 87%
    18:00 +7°C° 0 mm 1 mps 654 mmHg 89%
    19:00 +6°C° 0 mm 1 mps 654 mmHg 90%
    20:00 +6°C° 0 mm 1 mps 654 mmHg 92%
    21:00 +5°C° 0 mm 1 mps 654 mmHg 92%
    22:00 +5°C° 0 mm 1 mps 654 mmHg 91%
    23:00 +5°C° 0 mm 1 mps 654 mmHg 91%

    22 November, Friday

    Time Temperature Precipitation Wind Pressure Humidity
    00:00 +5°C° 0 mm 1 mps 654 mmHg 91%
    01:00 +5°C° 0 mm 1 mps 654 mmHg 91%
    02:00 +5°C° 0 mm 1 mps 654 mmHg 91%
    03:00 +5°C° 0 mm 1 mps 654 mmHg 91%
    04:00 +5°C° 0 mm 1 mps 654 mmHg 92%
    05:00 +4°C° 0 mm 1 mps 654 mmHg 92%
    06:00 +5°C° 0 mm 1 mps 654 mmHg 92%
    07:00 +5°C° 0 mm 1 mps 654 mmHg 91%
    08:00 +5°C° 0 mm 1 mps 655 mmHg 91%
    09:00 +6°C° 0.1 mm 1 mps 655 mmHg 86%
    10:00 +7°C° 0.1 mm 1 mps 656 mmHg 81%
    11:00 +7°C° 0.1 mm 2 mps 656 mmHg 75%
    12:00 +7°C° 0.1 mm 2 mps 656 mmHg 76%
    13:00 +7°C° 0.1 mm 2 mps 656 mmHg 76%
    14:00 +7°C° 0.1 mm 2 mps 656 mmHg 76%
    15:00 +6°C° 0.1 mm 2 mps 655 mmHg 81%
    16:00 +6°C° 0.1 mm 2 mps 655 mmHg 85%
    17:00 +6°C° 0.1 mm 1 mps 655 mmHg 90%
    18:00 +6°C° 0.1 mm 1 mps 655 mmHg 91%
    19:00 +6°C° 0.1 mm 1 mps 656 mmHg 91%
    20:00 +6°C° 0.1 mm 1 mps 656 mmHg 92%
    21:00 +5°C° 0 mm 1 mps 656 mmHg 92%
    22:00 +5°C° 0 mm 1 mps 656 mmHg 92%
    23:00 +5°C° 0 mm 1 mps 656 mmHg 92%

    23 November, Saturday

    Time Temperature Precipitation Wind Pressure Humidity
    00:00 +5°C° 0 mm 1 mps 656 mmHg 92%
    01:00 +5°C° 0 mm 1 mps 656 mmHg 93%
    02:00 +4°C° 0 mm 1 mps 656 mmHg 93%
    03:00 +4°C° 0 mm 1 mps 656 mmHg 92%
    04:00 +4°C° 0 mm 1 mps 655 mmHg 92%
    05:00 +4°C° 0 mm 1 mps 655 mmHg 92%
    06:00 +4°C° 0 mm 1 mps 655 mmHg 92%
    07:00 +4°C° 0 mm 1 mps 655 mmHg 92%
    08:00 +4°C° 0 mm 1 mps 655 mmHg 92%
    09:00 +5°C° 0 mm 1 mps 656 mmHg 90%
    10:00 +5°C° 0 mm 1 mps 656 mmHg 88%
    11:00 +6°C° 0 mm 1 mps 656 mmHg 86%
    12:00 +6°C° 0.1 mm 1 mps 656 mmHg 85%
    13:00 +6°C° 0.1 mm 1 mps 656 mmHg 85%
    14:00 +6°C° 0.1 mm 1 mps 655 mmHg 84%
    15:00 +6°C° 0 mm 1 mps 655 mmHg 87%
    16:00 +6°C° 0 mm 1 mps 655 mmHg 89%
    17:00 +5°C° 0 mm 1 mps 655 mmHg 92%
    18:00 +4°C° 0 mm 0 mps 655 mmHg 92%
    19:00 +4°C° 0 mm 0 mps 655 mmHg 93%
    20:00 +4°C° 0 mm 0 mps 655 mmHg 93%
    21:00 +4°C° 0 mm 0 mps 655 mmHg 94%
    22:00 +3°C° 0 mm 0 mps 655 mmHg 94%
    23:00 +3°C° 0 mm 0 mps 654 mmHg 94%
    Show more